GEFSMW_500_meanwind_000.txt.gz
Wind_Speed
30 30 30 32 32 31 30 29 28 28 27 29 29 30 30 32 34 36 37 37 38 40 41 43 43 43 43 43 45 45 44 44 46 46 46 45 43 42 43 43 43 42 42
24 24 24 24 26 28 28 29 30 31 31 31 31 31 32 35 38 40 42 43 43 43 45 46 48 49 48 47 47 47 46 45 46 47 49 48 46 45 45 44 43 43 44
20 21 21 23 25 28 29 30 31 32 33 34 33 33 34 38 42 44 46 48 48 48 48 50 51 53 53 52 51 52 52 51 50 50 50 50 49 49 48 46 44 44 44
19 19 20 22 23 25 27 28 30 31 33 34 34 34 37 40 45 48 50 52 52 53 54 55 56 57 57 56 55 55 55 55 54 54 54 53 51 50 49 47 46 46 46
20 20 21 23 24 25 26 27 27 28 29 31 33 35 37 42 46 49 52 54 55 57 58 59 59 60 61 61 60 60 59 59 59 58 57 55 54 52 50 47 47 46 46
22 24 25 27 28 30 31 32 32 33 33 35 36 39 41 44 47 50 53 55 57 59 60 61 61 62 62 63 64 65 64 63 62 61 60 59 59 54 52 50 48 46 43
28 29 31 33 34 36 37 38 39 40 41 42 43 44 46 48 51 53 55 57 58 59 60 62 63 64 65 65 67 68 67 66 66 64 64 62 62 59 55 51 48 47 45
35 36 37 38 39 40 40 41 43 43 44 46 48 51 53 55 56 57 58 59 61 61 63 65 67 68 69 70 71 72 71 72 73 72 67 63 59 55 53 49 49 48 47
38 39 39 39 39 40 40 41 43 44 45 47 48 51 53 54 55 56 59 61 62 63 64 65 66 68 70 72 73 74 74 74 73 72 70 65 58 50 48 48 49 47 47
39 38 38 39 40 41 42 44 47 48 49 50 51 52 53 55 56 57 59 60 62 64 65 66 68 70 73 75 77 76 73 72 69 68 65 60 55 49 46 47 46 46 45
43 43 45 46 48 49 51 53 54 54 54 54 53 52 53 55 56 58 59 61 63 64 66 69 71 74 75 76 78 75 73 70 66 64 61 53 44 44 46 46 46 45 45
48 50 51 52 53 54 54 53 52 50 49 50 51 52 54 57 60 62 63 64 66 67 68 71 73 74 74 76 77 76 72 67 61 58 56 50 45 45 46 45 44 44 44
52 53 52 50 50 49 48 46 47 49 51 53 55 57 59 61 63 65 67 69 72 72 72 73 74 74 73 73 73 72 69 65 60 54 53 51 48 47 47 48 47 45 44
49 47 46 45 45 46 47 49 52 53 54 56 57 58 60 63 65 67 70 72 75 76 77 79 79 78 76 74 72 70 69 66 63 58 55 54 50 48 49 47 47 45 42
49 49 48 48 49 50 51 51 52 53 53 55 57 58 60 61 63 65 68 71 74 77 79 80 80 80 79 76 73 71 67 66 66 64 60 57 51 48 49 48 51 48 43
54 55 54 53 53 53 53 52 51 51 51 51 52 54 56 59 61 64 66 69 71 74 77 79 80 80 78 74 71 70 68 66 68 68 62 61 55 49 49 49 53 48 45
56 57 58 58 58 59 58 57 55 54 54 54 54 55 57 59 60 62 63 66 69 72 74 76 77 77 74 70 69 71 72 70 68 64 61 62 59 52 49 49 51 46 45
56 56 57 58 60 61 61 61 60 60 59 58 58 59 60 60 61 61 62 63 64 66 69 71 72 71 68 68 69 68 70 71 68 65 60 60 57 52 48 48 50 46 44
56 58 60 62 63 63 62 62 61 61 62 61 60 60 62 62 62 62 62 63 63 64 65 66 67 68 66 64 62 61 64 65 61 61 57 52 51 47 46 46 47 47 44
57 59 62 63 64 64 63 62 62 62 62 62 63 64 64 65 64 64 64 64 64 64 64 63 65 67 65 61 56 54 60 61 55 52 49 42 44 42 40 44 45 45 45
60 61 62 63 65 66 66 65 63 63 63 64 65 67 67 68 68 68 68 67 66 65 64 63 62 61 58 56 49 45 51 58 56 47 42 35 36 37 35 38 42 44 45
63 64 65 66 65 65 64 64 64 65 66 66 67 69 71 72 72 70 68 67 67 67 66 64 61 58 53 50 51 48 44 48 51 47 39 33 35 35 35 36 39 42 42
68 68 67 66 63 62 62 63 66 67 68 69 71 73 74 75 74 71 68 66 66 66 64 61 58 54 49 47 48 50 46 44 44 43 42 39 35 35 37 35 37 40 39
71 68 64 62 60 62 63 67 70 71 73 75 77 78 77 75 72 69 65 63 62 61 58 55 54 50 44 43 43 44 47 48 42 38 37 39 31 29 35 34 35 38 37
67 61 58 59 61 64 68 72 77 80 81 81 80 78 75 71 68 65 62 60 60 59 53 49 48 45 40 41 42 40 44 47 43 38 38 37 31 28 30 32 35 35 33
59 58 60 63 66 71 75 80 83 85 84 80 75 73 71 69 66 64 62 60 58 56 52 48 45 41 37 37 39 40 41 42 41 39 39 35 29 29 30 32 37 37 34

GEFSMW_500_meanwind_006.txt.gz
Wind_Speed
20 22 25 28 31 32 32 32 31 29 28 28 28 29 31 33 35 37 38 39 41 42 43 44 46 47 47 48 50 52 52 52 53 54 55 55 54 53 55 55 56 55 56
25 26 28 30 30 30 30 29 28 28 28 28 30 32 33 35 38 40 41 42 43 44 45 46 48 49 50 51 53 56 56 55 55 56 57 58 56 55 56 56 57 56 57
28 29 28 28 28 28 28 27 27 28 29 30 31 32 34 36 38 40 41 42 44 45 46 47 49 50 52 53 54 56 58 58 58 59 60 61 61 59 57 56 56 57 59
28 26 26 26 26 26 26 27 28 29 30 31 33 34 35 37 39 41 41 41 42 43 45 47 50 52 54 55 56 58 60 61 62 63 64 64 64 65 64 61 60 61 62
24 24 24 25 26 27 28 29 31 33 34 36 38 40 41 43 45 47 48 49 49 49 51 54 57 59 60 61 62 62 63 64 65 66 66 66 65 63 65 65 64 66 65
23 24 26 27 29 30 32 33 36 38 40 42 44 45 47 48 50 51 53 54 55 56 57 59 61 62 63 64 65 65 65 66 67 67 67 68 67 65 66 68 68 69 65
25 27 30 32 33 35 37 39 40 42 44 46 48 49 51 53 54 54 55 55 56 58 59 61 62 63 63 64 65 67 67 67 68 69 69 70 70 70 70 70 69 68 64
30 33 35 37 38 40 41 42 44 45 46 47 49 50 52 54 55 57 58 59 61 63 64 65 66 65 66 67 68 69 69 69 70 70 71 72 72 73 73 72 69 69 67
37 39 40 39 40 41 43 44 46 47 49 51 52 54 56 58 60 62 64 65 67 68 68 68 68 68 68 68 69 70 70 70 71 73 74 75 75 75 75 73 70 69 69
38 40 40 40 41 44 46 48 50 52 54 55 57 58 59 61 63 64 66 66 66 66 65 65 65 66 67 69 71 73 73 74 74 75 76 76 76 76 75 74 71 67 65
38 41 43 43 45 48 50 52 53 55 56 57 58 59 60 61 61 62 63 63 63 64 66 68 69 70 71 73 75 76 77 78 78 78 78 77 76 75 75 74 70 67 64
41 45 46 48 50 52 52 53 54 55 56 57 58 60 61 62 63 64 65 66 67 69 70 70 72 73 75 76 78 79 80 81 81 82 82 81 78 76 75 74 72 69 65
43 47 49 51 52 53 55 56 57 58 59 60 62 63 65 66 67 69 70 71 72 72 73 73 74 75 76 77 78 79 80 82 83 84 84 83 82 80 78 76 75 72 68
43 46 50 53 56 59 61 63 64 66 67 69 70 70 71 71 71 72 72 72 73 73 73 74 75 76 77 78 79 80 81 82 83 84 83 82 82 80 78 77 74 70 66
48 51 55 58 61 64 66 68 70 72 73 74 75 76 76 76 75 74 74 74 74 75 75 75 76 77 78 80 81 83 84 84 84 82 80 79 79 77 75 74 71 65 61
54 57 60 64 66 68 70 72 73 74 75 76 77 77 76 76 75 75 75 75 76 76 77 77 78 79 80 82 83 84 84 84 83 81 79 77 76 74 71 69 64 59 57
61 64 67 70 72 74 75 76 77 78 78 78 78 77 77 77 77 75 74 74 75 76 77 78 79 80 80 80 81 81 81 82 82 81 79 76 73 71 68 65 60 56 54
68 71 74 77 79 80 80 80 80 80 79 78 77 76 77 77 76 76 77 78 78 78 78 78 78 78 77 78 78 79 79 79 79 78 77 76 74 71 66 62 58 54 53
75 78 80 82 83 83 82 80 79 79 77 76 76 76 76 76 77 78 79 78 78 77 76 75 74 74 74 74 76 78 79 79 78 77 75 74 72 67 62 58 54 51 49
80 82 84 84 83 81 79 77 76 75 75 75 75 75 74 74 73 73 72 72 72 72 73 73 73 74 74 76 78 81 82 81 80 76 73 69 65 60 56 54 51 47 45
83 83 82 81 79 77 74 73 73 73 73 74 73 73 72 72 71 71 70 71 72 74 75 76 77 78 79 80 81 82 82 80 76 71 65 60 56 53 51 51 49 46 43
80 79 77 75 73 72 70 70 70 70 70 69 69 68 68 68 69 71 72 74 77 80 81 82 82 82 82 81 79 76 72 68 64 59 55 51 47 46 47 48 48 44 40
74 72 70 68 67 67 67 66 66 65 64 63 63 63 65 67 70 73 76 79 82 84 85 85 84 81 78 75 71 66 61 56 53 50 47 44 42 42 43 44 45 41 36
68 65 63 62 63 63 62 61 61 60 61 62 64 67 70 72 75 78 81 83 84 84 83 81 78 74 69 65 61 56 52 47 45 43 42 41 40 40 39 40 41 38 33
63 61 59 59 59 58 58 60 61 63 66 68 71 74 77 79 80 82 83 84 82 80 77 73 69 65 60 56 53 50 45 41 38 37 37 38 38 36 34 35 36 33 29
58 57 57 57 58 59 61 64 67 70 73 75 77 79 81 83 84 84 83 80 75 69 64 60 59 56 53 50 46 43 40 36 33 32 33 33 31 28 28 30 31 29 26

GEFSMW_500_meanwind_012.txt.gz
Wind_Speed
21 20 20 20 21 22 25 27 29 29 28 28 27 27 26 26 27 28 29 31 33 35 36 37 39 41 42 43 44 47 48 50 53 55 57 58 58 57 57 59 60 59 59
18 19 19 21 24 27 29 31 30 29 27 26 26 26 27 28 30 31 33 35 37 40 42 43 45 47 48 49 51 52 54 54 56 58 61 61 60 58 61 62 62 61 61
18 20 22 25 28 31 32 32 31 29 28 27 28 28 30 32 34 36 39 42 44 46 49 50 52 53 54 55 56 58 59 60 60 61 64 66 65 63 61 62 63 62 61
21 23 26 29 31 32 32 31 30 30 30 31 32 33 35 37 39 42 44 47 49 51 53 54 55 56 58 59 60 62 63 64 64 64 66 68 70 71 69 64 63 64 63
25 27 28 29 29 29 29 30 30 31 33 34 36 38 39 41 43 45 47 49 51 53 55 57 59 60 62 64 65 67 68 69 70 71 71 71 72 72 74 72 66 64 63
26 25 25 26 27 28 29 30 31 33 35 36 38 40 41 43 45 48 50 52 54 57 59 61 63 64 65 67 68 69 70 71 72 72 72 71 70 68 68 69 67 64 60
24 24 24 25 26 27 29 30 32 34 36 38 40 42 44 47 49 51 53 55 57 59 61 62 64 65 66 67 68 68 69 69 70 70 70 69 68 67 65 65 65 64 63
24 24 24 25 27 28 30 31 34 36 39 41 43 46 48 50 52 53 55 57 59 61 63 65 67 69 70 71 72 73 73 74 74 74 74 74 74 73 72 70 69 68 67
24 24 25 26 28 30 32 35 38 40 42 44 46 48 49 51 53 56 58 61 63 65 67 70 72 74 76 77 78 79 79 80 80 80 80 79 78 78 77 76 75 75 74
24 25 27 29 32 34 36 39 41 43 44 46 48 50 52 55 57 60 62 65 68 71 74 76 78 80 82 83 83 84 84 84 84 84 83 82 81 80 79 79 78 78 79
25 27 30 33 35 37 39 41 42 45 47 50 53 56 58 61 63 66 69 72 75 78 80 82 84 86 87 88 88 88 88 88 86 85 84 84 83 82 81 80 79 78 77
27 30 32 34 36 39 41 44 47 50 54 57 59 62 65 68 71 73 76 79 82 85 88 90 91 91 91 91 91 90 89 88 86 85 84 83 81 80 79 78 77 76 75
31 33 35 37 40 44 47 51 54 57 60 63 65 68 71 75 78 81 84 87 90 93 95 96 96 95 93 92 91 90 88 86 84 82 81 80 79 78 76 75 73 73 72
34 35 38 42 46 49 53 56 60 63 66 68 71 74 77 80 84 87 90 94 97 98 98 97 95 93 91 89 87 86 84 82 79 78 78 77 77 76 75 74 72 71 71
36 39 43 47 51 54 58 62 65 68 71 74 77 80 83 86 89 92 95 98 100 100 98 95 91 88 85 82 81 79 78 76 75 74 73 73 73 73 74 73 72 71 70
41 45 49 53 57 60 64 67 70 72 75 78 81 84 87 91 93 96 97 97 96 94 91 87 83 79 77 75 75 74 73 73 73 73 72 72 72 73 73 73 72 71 71
46 50 55 59 62 66 68 71 73 75 78 82 85 89 91 93 94 94 92 90 86 82 78 75 73 72 71 72 72 73 74 74 75 76 75 74 74 76 77 76 74 73 73
52 56 60 63 66 68 71 73 76 79 83 86 89 92 92 91 89 85 81 77 73 71 69 69 69 69 71 73 75 77 79 80 81 82 82 81 79 80 81 80 78 75 73
57 60 63 65 67 70 73 76 79 83 86 88 89 89 86 82 78 74 71 69 67 67 67 69 71 74 76 80 82 84 84 84 84 84 83 82 80 78 79 78 76 73 70
60 62 65 67 70 73 75 79 82 85 86 86 84 81 77 74 71 69 68 68 69 70 72 75 78 81 84 86 87 88 88 86 84 80 76 74 72 69 68 68 67 65 62
63 65 68 70 73 75 78 82 84 85 84 81 77 73 71 69 69 69 71 73 75 77 80 82 85 87 89 90 90 89 87 84 79 74 68 64 61 59 57 55 54 52 50
66 69 71 73 75 78 81 83 83 81 78 74 71 70 69 70 72 74 76 79 83 86 88 90 91 92 92 91 89 85 80 75 71 65 59 54 50 47 45 42 41 40 39
69 71 73 75 77 80 82 81 79 75 71 69 68 69 70 73 76 80 83 86 89 93 95 95 95 92 88 83 79 73 66 60 57 53 50 46 42 37 33 31 30 30 30
71 73 75 78 80 81 81 78 74 70 68 68 68 71 74 77 81 85 89 92 94 96 95 93 88 82 75 68 63 57 51 45 42 41 41 40 36 30 24 22 21 22 22
73 75 77 80 80 79 76 73 69 67 67 68 71 75 79 83 87 89 91 92 90 88 84 79 73 67 59 53 50 45 39 35 33 33 32 32 29 23 18 15 15 16 17
74 76 78 79 78 74 71 68 66 66 69 72 76 80 84 87 89 88 85 79 74 69 65 62 59 55 50 46 42 38 33 32 31 30 28 25 21 16 13 12 12 14 16

GEFSMW_500_meanwind_018.txt.gz
Wind_Speed
22 24 25 25 25 25 24 24 24 25 26 27 29 32 33 35 35 35 35 35 35 35 36 37 39 41 42 44 46 49 50 52 55 57 57 57 57 58 58 60 61 62 62
23 24 24 24 23 23 23 24 26 28 29 31 33 34 34 35 35 35 36 36 37 38 40 41 43 45 47 49 51 54 56 57 59 61 63 63 61 59 60 61 62 62 63
22 23 23 23 22 22 23 26 28 31 33 34 34 34 34 35 35 36 37 38 40 42 44 46 48 50 52 54 55 57 59 60 60 62 65 67 67 66 63 63 63 64 65
21 22 23 23 24 24 26 29 31 33 33 34 33 33 34 36 37 38 40 42 44 46 48 50 52 53 55 56 57 59 61 62 63 65 67 69 72 73 73 71 71 70 70
23 24 25 26 27 29 30 31 32 32 32 32 33 35 36 38 40 42 44 45 47 49 51 52 54 56 58 59 61 63 65 67 69 71 73 75 77 80 83 82 81 81 80
26 27 28 29 31 32 32 32 31 31 32 34 36 37 39 41 43 44 46 48 49 51 53 56 59 61 63 66 68 70 73 75 77 79 81 84 86 87 90 91 90 90 88
28 29 30 32 33 34 33 32 33 34 35 37 39 40 41 43 44 46 47 49 52 55 58 61 64 67 70 72 75 77 79 81 83 85 88 90 93 95 96 98 99 98 95
30 31 32 33 34 34 34 34 35 37 38 39 40 41 43 44 46 48 51 54 57 61 64 67 70 73 75 78 80 82 84 86 89 91 94 96 98 99 99 99 101 102 100
31 31 32 32 33 34 35 36 38 39 40 41 41 43 44 47 50 53 57 61 65 68 71 74 76 78 80 82 84 87 89 92 95 97 99 100 101 100 98 96 93 93 96
29 29 30 32 34 35 36 38 39 40 41 42 43 46 48 52 55 59 63 66 70 73 76 78 81 83 85 87 90 92 95 97 99 101 102 101 99 96 91 86 82 80 81
27 29 31 34 35 36 37 38 39 40 42 44 46 49 53 57 61 65 68 72 75 78 80 82 84 86 89 92 94 97 99 100 101 101 99 96 92 86 81 76 72 71 73
28 31 33 35 36 37 37 38 39 41 43 46 50 54 58 62 66 70 73 76 79 81 83 85 87 90 92 95 97 99 100 100 99 96 92 87 82 77 73 71 70 70 72
30 32 34 35 37 37 38 39 41 44 48 52 56 60 64 68 71 74 76 78 80 82 85 88 90 93 95 98 99 99 98 96 92 89 84 81 78 76 74 74 74 75 75
32 34 35 36 37 38 39 42 46 50 54 58 61 65 68 71 74 76 78 80 82 85 88 91 94 96 97 98 97 95 92 88 85 83 81 81 81 81 82 81 82 83 83
33 35 36 37 38 40 43 47 52 56 59 62 65 69 71 74 76 78 80 83 86 89 92 94 96 96 95 93 91 89 86 85 84 83 84 86 87 88 90 90 90 90 91
34 35 36 38 41 45 49 53 56 59 62 65 68 71 73 75 78 81 83 86 89 91 93 94 94 92 90 88 87 88 88 88 89 89 89 90 91 92 93 94 94 94 94
34 36 38 42 46 49 53 56 59 62 64 67 70 73 75 78 81 83 86 88 91 92 92 91 89 87 86 86 88 90 92 92 91 90 89 87 86 87 88 87 87 86 84
36 39 43 46 50 53 56 59 61 64 67 70 72 75 78 80 83 86 88 90 91 90 89 87 85 84 85 88 91 92 90 87 83 80 78 76 74 73 74 73 71 69 65
40 43 47 50 54 56 59 61 64 66 69 72 75 77 80 82 85 87 88 89 88 85 83 82 83 84 87 90 90 88 83 78 73 70 69 68 65 63 62 61 58 53 49
44 48 51 54 56 59 61 64 66 69 71 74 77 79 81 84 86 87 87 86 84 82 80 80 84 88 90 88 85 81 77 73 69 65 62 60 58 55 53 51 48 43 38
49 52 55 57 60 62 64 66 68 71 73 75 78 80 83 85 85 85 84 82 80 79 80 82 85 88 88 84 78 74 71 68 64 61 57 54 51 48 46 44 42 38 32
53 56 58 61 63 64 66 68 70 71 74 76 79 81 83 84 83 82 80 78 78 79 81 83 85 85 82 77 71 67 64 62 60 57 53 50 48 45 42 40 36 32 26
57 60 62 63 64 65 66 68 70 72 75 77 80 82 82 81 80 78 77 77 78 80 83 86 86 82 75 70 66 62 59 56 53 50 47 46 45 42 39 36 32 26 19
60 61 62 63 64 65 66 68 71 73 76 79 81 81 80 78 76 75 75 76 78 81 84 86 84 78 71 66 62 58 55 51 48 45 42 41 40 38 36 31 25 18 13
61 60 61 62 63 65 67 70 73 76 79 80 81 79 77 75 73 72 73 76 78 82 86 86 82 75 69 64 60 57 53 50 46 43 40 38 35 33 30 25 18 13 11
59 59 60 61 63 66 69 72 76 78 80 80 78 76 74 73 72 71 71 74 78 81 85 82 77 71 66 63 58 54 51 47 43 40 38 35 31 28 22 14 10 10 13

GEFSMW_500_meanwind_024.txt.gz
Wind_Speed
25 25 24 24 25 26 26 27 27 26 26 27 28 29 30 32 34 36 37 39 40 40 41 41 41 42 43 43 45 46 47 49 51 52 53 55 56 58 60 62 64 66 67
25 25 25 25 26 27 27 27 26 25 25 26 28 30 32 34 36 37 38 39 40 41 41 42 42 43 44 45 46 48 49 51 54 57 59 60 61 63 65 67 68 70 72
24 25 25 26 27 27 27 26 25 25 26 28 29 31 33 35 36 37 38 40 41 41 42 43 44 44 46 47 49 51 54 56 59 62 66 68 70 70 69 71 73 74 75
24 25 26 27 27 26 26 25 25 26 28 29 31 33 34 35 36 38 39 40 41 42 43 44 45 46 48 50 53 56 59 62 65 67 70 74 77 79 79 79 80 81 81
26 26 27 27 26 26 26 27 27 29 30 31 33 34 35 36 37 39 40 41 42 43 44 46 47 49 52 55 59 62 66 69 72 74 76 78 80 82 85 86 86 87 87
27 27 27 28 28 28 28 28 29 30 31 33 34 34 36 37 39 40 41 43 44 45 47 49 51 54 58 61 65 68 71 73 76 78 81 83 85 86 88 89 89 90 91
28 28 29 29 28 28 29 29 30 31 32 33 34 35 37 39 40 41 43 44 46 47 50 53 56 60 64 67 70 73 75 77 79 82 84 86 88 91 93 96 96 97 96
28 29 30 29 29 28 29 30 31 32 33 34 35 37 38 40 41 43 44 46 48 50 54 58 62 65 69 72 74 76 78 80 82 84 87 89 91 94 97 100 103 105 104
28 30 30 29 29 29 29 30 31 32 33 35 36 38 39 41 42 44 46 49 52 56 60 63 67 70 72 74 77 79 81 83 85 87 90 92 94 97 100 102 104 107 109
27 28 28 27 28 28 29 30 31 32 34 36 37 39 40 42 44 46 50 53 57 61 65 68 71 73 75 77 80 82 84 86 88 90 92 95 98 100 101 102 103 103 104
27 27 27 27 27 28 29 30 32 34 35 37 38 40 42 44 47 51 55 59 62 66 69 71 73 75 78 80 82 84 86 89 91 93 96 98 100 101 101 100 99 98 98
27 27 26 26 27 29 30 32 33 35 36 38 40 42 45 49 53 56 60 63 67 69 71 74 76 78 81 83 85 86 89 91 93 96 98 99 99 99 98 96 94 93 92
27 26 26 27 29 31 32 33 34 36 38 40 43 46 50 54 57 61 64 67 69 72 74 77 79 80 82 84 87 89 91 93 95 97 98 97 96 94 93 91 89 87 85
27 27 27 29 31 32 33 34 36 38 41 44 47 51 55 58 62 65 68 70 72 74 77 78 80 82 84 87 89 91 93 95 95 95 94 92 91 90 89 87 84 81 77
27 27 29 31 32 33 35 36 38 41 44 48 51 55 59 62 66 68 70 72 74 76 78 79 81 84 87 89 91 93 94 94 93 91 89 87 87 87 85 81 78 74 71
28 29 31 32 34 35 37 39 41 45 48 52 56 60 63 66 68 70 72 74 75 77 78 80 83 86 89 91 93 94 93 91 89 86 84 83 84 82 78 74 71 69 67
30 31 32 34 35 37 39 41 45 48 52 56 61 64 66 68 70 72 73 74 75 77 79 82 85 88 90 91 91 90 88 86 84 83 82 82 80 77 73 68 64 61 60
31 32 34 35 36 38 41 44 48 53 57 61 64 66 68 69 70 71 72 74 76 78 81 85 88 89 90 90 88 86 83 81 80 82 83 81 76 72 68 64 59 55 54
32 33 34 35 37 40 44 48 52 57 61 64 66 67 68 68 69 71 72 75 77 81 85 88 89 89 88 86 84 82 80 78 79 81 81 76 71 66 64 60 56 51 49
32 33 34 37 39 43 47 52 57 61 63 65 66 66 66 67 69 71 74 77 81 85 87 89 89 87 84 82 80 80 79 79 79 79 75 69 64 61 58 55 52 48 43
32 34 36 39 43 47 52 56 60 63 64 64 63 64 65 67 70 73 77 81 85 87 88 88 86 83 80 77 76 77 79 81 79 75 67 61 57 54 51 49 47 43 37
33 36 39 43 47 52 56 59 61 61 61 61 61 63 66 69 74 78 82 85 88 88 86 83 80 77 75 74 75 76 79 81 77 69 60 54 51 47 45 43 40 35 29
36 40 44 48 52 55 58 59 58 58 58 59 61 65 69 74 78 82 85 87 87 85 82 78 75 73 72 73 75 77 78 76 69 60 53 48 45 42 39 36 32 26 21
41 45 49 52 55 56 56 55 55 55 57 60 64 69 73 78 82 85 87 86 84 81 77 74 72 71 71 74 76 78 76 69 59 52 47 43 39 36 32 28 23 20 19
45 49 51 54 54 53 52 52 53 55 59 64 69 73 78 82 84 86 85 83 80 76 73 72 72 72 73 75 78 77 70 60 53 47 42 37 32 28 25 21 19 19 21
48 50 51 51 50 49 50 52 55 59 64 69 74 78 82 85 86 85 82 78 73 70 69 71 73 74 76 77 76 70 60 53 48 43 37 31 26 21 16 16 17 19 20

GEFSMW_500_meanwind_030.txt.gz
Wind_Speed
27 28 29 29 28 27 26 25 26 27 29 30 32 34 35 35 34 33 33 34 36 37 39 40 40 40 40 40 40 40 41 43 44 45 46 47 49 51 54 56 59 61 63
27 27 28 28 28 27 26 26 27 28 30 32 34 35 35 34 34 35 36 37 38 40 41 41 41 41 42 43 44 45 46 47 50 52 53 53 54 56 59 62 65 67 69
26 26 26 27 27 27 27 28 29 30 32 33 34 34 34 34 35 36 37 39 40 41 42 42 42 43 44 46 47 49 50 52 54 57 61 63 64 64 65 67 69 71 73
26 25 25 26 27 27 28 29 30 31 33 33 34 34 34 36 37 38 40 41 42 42 42 42 43 45 46 48 50 52 54 57 59 62 66 70 73 75 74 73 74 76 78
25 25 25 25 26 27 28 29 30 32 33 33 33 34 36 37 39 40 41 42 42 42 42 43 44 46 48 50 52 55 59 62 66 69 71 73 76 78 80 80 81 82 83
26 25 25 25 26 27 28 29 31 32 33 34 35 36 38 39 40 41 42 42 41 42 43 44 46 48 50 53 56 60 63 67 70 73 76 78 80 82 84 85 85 86 86
26 25 25 25 26 28 29 30 31 33 34 35 36 38 39 40 41 41 41 42 42 43 44 46 48 51 54 58 61 65 68 71 73 76 78 80 82 85 87 89 90 91 90
25 25 25 26 27 28 29 31 32 33 34 36 37 39 39 40 40 41 41 42 43 45 46 49 52 56 59 63 66 69 72 74 76 78 80 82 84 87 90 93 96 97 96
24 24 25 26 27 28 30 31 32 34 35 36 38 39 39 40 40 41 42 43 45 47 50 53 57 61 64 67 70 73 75 77 79 80 82 84 87 90 93 97 100 104 106
24 24 25 26 27 29 30 31 32 33 35 36 37 38 39 40 41 42 43 45 47 50 54 58 62 65 69 71 73 75 77 78 80 82 85 88 91 95 98 101 104 106 109
25 25 26 27 28 29 30 31 32 33 34 36 37 38 40 41 42 43 46 48 51 55 59 62 66 69 72 73 75 76 77 79 82 85 89 93 97 100 102 104 104 104 103
26 27 27 28 29 30 30 31 32 34 35 36 38 39 40 42 43 46 48 52 55 59 63 67 70 72 73 74 75 76 79 83 87 91 95 98 101 103 103 102 101 99 96
27 27 28 29 30 30 31 32 33 35 36 37 39 40 42 44 46 49 52 56 60 64 67 70 71 71 72 74 76 80 84 88 92 97 100 101 102 101 99 97 95 92 90
27 28 29 30 31 32 33 34 35 36 37 39 40 42 44 46 48 52 56 60 64 67 69 69 70 71 73 77 81 85 89 93 97 100 101 101 99 96 94 91 89 87 86
28 29 31 32 33 34 34 35 36 37 39 41 42 44 46 48 52 56 60 64 66 68 68 68 70 73 77 82 86 90 95 98 100 100 99 96 92 89 86 85 84 84 83
29 30 31 32 33 34 35 36 37 39 41 42 43 45 48 51 56 60 63 65 66 66 66 68 72 77 82 87 92 96 99 101 101 98 94 88 84 82 80 81 81 81 80
30 31 32 33 34 35 36 37 39 40 42 43 45 47 51 55 59 62 64 64 64 65 68 72 77 82 87 92 96 99 101 100 97 92 86 81 79 78 79 79 77 73 68
31 32 33 33 34 35 36 38 40 41 42 44 47 50 54 58 61 62 62 62 64 67 72 77 82 87 92 96 99 101 99 95 89 83 79 78 76 77 78 75 70 63 57
32 33 33 33 34 35 37 39 40 41 43 46 50 54 57 60 61 60 61 63 66 71 76 81 86 91 95 99 100 99 95 87 81 77 76 76 76 75 72 68 61 54 49
31 31 32 33 35 37 38 38 39 42 45 49 53 56 58 59 58 59 62 66 70 75 80 85 90 95 98 99 98 94 89 83 78 74 73 73 72 68 63 58 53 47 40
30 31 32 34 36 36 37 38 41 44 48 52 55 57 56 57 58 61 65 70 75 80 84 89 94 97 98 96 92 87 82 80 77 75 72 68 63 59 54 50 45 39 33
30 31 33 34 35 36 37 40 43 47 51 54 55 55 55 57 60 64 69 75 79 84 88 92 96 97 95 91 85 80 78 78 77 73 67 61 55 50 46 41 36 31 28
30 31 32 33 34 36 39 42 46 50 52 53 53 53 55 59 64 69 74 79 84 88 92 96 97 95 90 84 79 77 76 75 72 67 60 54 47 42 37 33 29 26 26
29 30 31 33 36 38 42 45 48 51 51 51 52 54 57 62 67 73 78 83 87 91 95 97 95 90 84 79 77 75 73 70 64 58 52 44 38 34 29 26 25 25 23
29 31 33 35 38 41 44 47 49 49 49 50 53 57 61 66 71 76 81 86 90 94 96 95 91 86 80 77 76 75 70 64 58 50 42 36 30 26 23 23 23 21 20
31 33 35 37 40 43 46 47 47 48 49 52 56 60 65 70 75 79 83 88 92 94 94 89 84 80 77 76 74 69 63 57 50 42 35 29 24 20 19 18 18 17 17

GEFSMW_500_meanwind_036.txt.gz
Wind_Speed
33 31 30 30 29 28 27 26 25 24 25 25 25 25 26 27 28 30 31 32 33 34 34 35 37 38 40 42 43 44 45 45 45 45 44 45 47 48 50 52 55 58 60
34 31 30 30 29 28 27 26 25 25 25 25 26 26 27 28 30 31 33 34 34 35 36 38 40 41 43 44 44 45 46 47 47 47 47 47 48 51 54 57 60 63 66
33 31 30 30 29 28 27 27 26 26 26 26 26 27 28 30 32 33 34 35 37 38 40 41 42 43 44 45 45 46 47 48 50 51 53 54 55 55 57 60 64 67 69
33 30 30 30 29 28 27 27 26 26 26 27 27 29 30 32 33 35 36 38 39 40 41 42 43 44 45 46 46 47 49 50 52 55 58 61 64 66 66 65 66 68 69
32 29 30 30 29 27 26 26 26 26 26 27 28 30 32 33 35 37 38 39 40 41 42 43 44 45 46 47 48 50 52 54 56 59 62 65 69 72 75 74 72 71 71
31 30 30 29 28 27 26 25 25 25 26 27 29 31 32 34 36 37 39 40 41 42 43 44 45 46 47 48 50 53 55 58 61 64 67 69 70 72 74 76 77 77 76
30 30 30 29 28 27 26 25 25 25 26 28 29 31 33 35 36 38 39 40 41 42 43 44 46 47 49 51 53 55 58 62 65 67 69 71 72 74 76 78 79 80 81
30 30 30 29 27 26 25 25 25 25 27 28 29 31 33 35 37 38 40 41 42 43 44 46 47 49 51 53 56 59 62 65 67 68 70 71 73 75 79 83 86 87 88
30 30 28 27 26 25 24 24 25 25 27 28 29 31 33 35 37 39 40 41 43 44 46 47 49 50 53 56 59 62 64 66 68 68 70 72 75 79 83 88 93 98 99
29 28 26 25 24 24 24 24 24 25 26 28 30 32 34 36 37 39 41 42 44 45 47 48 50 53 56 59 62 64 65 66 68 69 72 75 80 84 89 95 100 106 111
26 25 24 23 22 22 22 23 24 25 27 29 31 32 34 36 38 40 42 43 45 46 48 50 53 55 59 61 63 64 66 67 69 72 76 81 86 91 96 101 106 111 114
25 24 23 21 21 20 21 22 24 26 27 29 31 33 35 37 39 41 43 44 46 48 50 52 55 58 61 63 64 65 66 69 73 77 82 87 93 98 103 107 111 112 111
23 21 20 20 20 21 22 23 25 26 28 30 32 34 36 38 40 42 44 46 48 50 52 55 58 61 62 63 64 66 69 73 78 84 89 94 99 104 108 111 111 108 103
21 20 20 20 20 21 22 23 25 27 29 31 33 35 38 40 42 43 45 47 49 52 55 58 60 62 62 64 66 69 73 79 84 90 95 101 105 109 111 110 106 100 93
19 19 19 19 20 21 22 24 26 28 31 33 35 37 39 41 43 45 47 48 51 55 58 60 61 62 63 66 69 73 79 84 90 95 101 106 109 110 109 104 98 90 84
19 19 19 19 20 21 23 25 27 30 32 34 36 38 40 42 44 46 48 51 54 57 59 61 61 63 65 69 74 79 84 90 96 101 105 108 108 105 99 92 86 80 75
19 19 19 20 20 22 24 27 29 31 33 35 37 39 41 43 45 47 50 53 56 58 60 61 62 65 69 74 79 84 90 95 101 105 107 107 103 96 89 82 75 68 63
20 20 20 21 22 24 26 28 30 32 34 36 38 40 43 44 46 49 52 55 57 58 59 61 64 68 73 79 84 89 94 100 104 106 105 101 93 86 80 73 65 57 50
20 20 22 23 24 26 28 29 31 33 35 37 40 41 43 45 48 51 54 56 57 58 60 64 68 73 78 83 89 94 99 102 104 102 98 92 84 77 71 63 54 46 39
20 21 23 25 26 27 28 30 32 34 36 38 40 41 44 47 50 53 55 55 57 59 62 67 72 77 83 88 94 99 102 103 101 94 87 81 75 67 59 52 44 36 30
21 22 23 25 26 27 28 30 32 34 36 38 40 43 45 49 52 53 54 55 57 61 65 70 76 82 87 93 98 102 103 100 94 85 77 70 63 56 48 42 35 30 25
20 21 22 23 25 27 29 31 33 35 37 39 41 44 47 50 52 52 54 56 59 64 68 74 79 85 91 96 100 101 99 93 85 76 68 60 52 45 39 33 28 25 21
19 20 22 24 26 28 30 32 34 35 37 40 43 46 49 50 51 53 55 58 63 67 72 77 82 87 93 98 100 97 90 83 75 67 58 50 43 36 31 27 23 20 19
19 21 23 25 27 29 30 32 34 36 39 42 45 47 48 50 51 54 57 62 66 71 76 81 85 90 95 98 96 89 81 73 65 56 47 40 34 30 26 22 20 20 19
20 22 24 26 27 29 31 33 35 38 41 43 45 47 48 50 52 56 61 65 70 76 80 85 90 94 96 95 90 81 73 64 55 46 38 31 27 25 24 22 21 20 20
20 22 24 26 28 30 32 35 37 40 42 44 45 47 49 51 54 59 64 69 74 79 84 89 93 96 94 88 79 71 64 55 46 37 30 25 23 21 20 20 20 21 21

GEFSMW_500_meanwind_042.txt.gz
Wind_Speed
39 41 41 39 37 35 34 32 32 31 30 28 28 28 29 29 28 28 28 29 30 30 31 32 33 35 36 37 39 41 42 43 43 44 45 47 47 47 48 49 50 52 53
42 41 41 39 37 36 35 34 33 31 30 30 30 30 30 30 29 29 29 30 30 31 33 34 35 36 38 40 41 43 44 45 45 45 45 46 47 48 50 51 53 55 57
46 44 42 40 38 37 36 35 34 32 31 30 30 30 30 31 30 30 30 31 31 33 34 36 37 39 40 42 43 44 46 47 47 48 48 48 48 48 49 52 55 57 59
48 47 44 41 39 39 38 37 35 33 31 30 29 30 31 31 31 31 31 32 33 35 36 38 40 41 42 43 45 46 47 48 49 50 51 53 54 55 53 53 56 58 59
50 48 45 41 40 40 39 37 35 33 31 30 29 29 30 30 31 31 32 33 35 36 38 40 41 42 44 45 46 47 49 50 51 52 54 56 58 60 60 59 59 60 60
51 49 46 43 41 40 39 37 35 34 31 29 29 29 29 30 31 32 33 34 36 37 39 40 42 43 45 46 47 49 51 52 53 55 57 59 61 63 64 64 64 64 64
51 49 46 43 40 39 38 37 35 33 31 30 29 29 29 30 31 32 34 35 37 38 39 41 43 44 46 47 49 51 52 54 56 58 60 62 65 66 67 68 68 68 68
51 48 45 42 40 39 38 37 35 33 31 30 30 30 30 30 32 33 34 35 37 38 40 42 44 45 47 49 50 52 54 56 58 60 63 65 67 68 70 71 73 73 73
49 46 44 42 40 40 38 37 34 32 31 31 30 30 30 31 32 33 34 36 37 39 41 43 45 47 48 50 52 54 56 58 61 63 65 67 68 69 72 75 78 81 82
47 45 43 41 40 39 38 36 34 32 31 30 30 30 30 31 32 33 35 36 38 40 42 44 46 48 50 52 53 55 58 61 64 66 67 68 69 72 75 78 83 88 92
44 43 42 41 40 38 37 35 33 31 30 30 30 30 30 31 32 33 35 37 39 41 44 46 48 50 52 53 55 58 61 64 66 67 68 69 72 74 79 83 88 94 100
42 41 40 39 38 37 35 33 31 31 30 30 30 30 30 31 32 34 35 38 40 43 45 47 49 51 53 55 58 61 64 65 67 68 69 71 74 79 84 89 94 100 106
39 38 38 37 36 35 33 31 30 30 29 29 29 29 29 31 33 34 37 39 42 44 46 48 50 52 55 57 60 63 65 67 68 69 71 75 79 84 89 94 100 105 107
35 35 35 34 33 33 31 30 29 28 28 28 28 28 30 31 33 36 38 41 43 45 47 49 52 54 57 60 63 65 66 67 69 71 75 79 84 89 95 100 105 106 105
32 32 31 31 31 30 29 28 27 27 27 27 27 28 30 32 35 37 40 42 44 46 49 51 53 56 59 62 64 66 66 68 70 74 79 84 90 95 101 105 105 102 96
29 29 29 29 28 27 27 26 26 26 26 27 27 29 31 33 36 39 41 43 45 48 50 52 55 58 61 63 65 66 67 70 74 78 83 89 95 100 103 104 99 91 83
27 27 26 26 26 25 25 25 25 25 25 26 27 30 32 35 37 40 42 44 47 49 51 54 57 60 62 64 65 66 69 73 78 83 88 94 99 103 102 96 86 76 68
24 24 24 24 23 23 23 23 23 23 25 26 29 32 34 36 38 40 42 45 48 50 53 56 59 61 63 63 65 68 72 77 82 88 94 98 101 100 95 85 72 62 54
22 22 21 21 20 20 21 21 22 24 26 28 31 33 35 37 39 41 44 46 48 52 55 58 60 61 62 64 67 71 76 81 86 92 98 101 99 93 84 72 59 50 43
18 18 18 18 19 20 20 22 24 26 28 30 32 33 35 37 40 42 45 47 50 53 56 58 60 61 63 66 70 75 80 85 90 96 99 97 91 81 69 58 47 39 35
16 16 17 18 19 20 21 23 25 27 28 30 32 34 36 38 41 43 46 49 52 54 56 58 59 62 65 70 75 80 85 90 95 97 94 87 78 66 56 47 39 34 32
15 16 17 18 19 20 22 23 25 26 28 30 32 34 37 39 41 44 47 50 52 54 55 57 60 64 69 73 78 83 89 94 96 92 85 74 63 53 45 38 33 31 31
16 16 17 18 18 20 21 23 25 26 28 31 33 35 38 40 43 46 49 51 53 54 55 58 61 66 71 76 81 87 92 94 91 82 71 61 50 42 36 32 30 29 29
15 15 16 17 19 20 22 23 25 27 29 31 34 36 39 42 44 47 49 51 52 54 57 60 64 69 74 79 84 89 92 90 81 69 57 47 39 34 31 29 29 29 29
14 15 16 17 19 20 22 24 26 28 30 33 35 38 41 43 45 47 49 51 53 56 59 63 68 73 78 83 89 92 89 81 69 55 44 37 32 30 29 29 30 29 30
14 15 16 18 19 21 22 25 27 30 32 35 37 40 42 44 45 47 49 51 54 58 63 68 73 78 83 87 90 87 79 67 55 44 36 31 28 27 27 27 28 30 30

GEFSMW_500_meanwind_048.txt.gz
Wind_Speed
42 42 43 43 43 43 43 43 43 42 41 39 38 37 36 36 36 36 35 35 35 34 34 34 34 34 35 35 36 37 38 39 41 42 43 44 45 46 47 49 50 51 52
45 45 44 44 44 44 44 44 44 43 42 41 39 38 37 36 36 36 36 35 35 35 35 35 35 36 36 37 37 38 39 41 42 43 45 47 47 48 49 51 53 54 55
48 48 47 46 45 45 45 45 44 44 43 42 41 39 38 37 36 36 36 37 36 36 36 36 37 37 38 38 39 40 41 43 43 45 46 48 49 49 50 53 55 56 58
50 50 50 48 47 46 45 45 45 44 43 42 41 40 39 37 36 36 36 37 37 37 37 37 38 38 39 39 41 42 43 44 45 47 48 50 51 52 52 53 55 57 59
53 52 52 51 50 48 47 46 45 44 43 42 41 40 38 37 37 37 37 37 37 37 38 38 38 39 40 41 42 43 45 46 47 49 50 52 54 56 57 56 56 58 60
55 55 55 54 53 52 50 48 47 45 43 42 41 39 38 38 37 37 37 37 37 37 38 38 39 40 41 42 43 44 46 48 49 51 53 54 56 58 60 60 61 61 62
58 58 57 56 56 54 51 50 48 46 44 43 41 39 38 38 38 37 37 37 37 37 38 39 39 40 41 42 44 45 47 49 51 53 55 57 59 60 62 64 65 66 67
57 58 58 57 57 56 54 51 49 47 45 43 41 39 38 38 38 37 37 37 37 38 39 39 40 41 42 43 45 47 50 52 53 55 57 59 61 63 65 67 69 69 69
54 56 57 57 57 56 54 52 50 48 46 43 41 40 38 38 38 38 37 37 37 38 39 40 40 41 42 44 46 49 51 53 55 57 59 61 63 65 68 69 71 72 73
51 54 56 56 55 55 54 52 50 48 46 44 42 40 38 38 38 37 37 37 38 39 39 40 40 41 43 45 48 51 53 55 57 59 61 63 66 68 69 71 72 74 75
46 50 54 55 55 54 53 52 50 47 45 43 41 39 37 37 37 37 37 37 37 38 39 39 40 42 44 47 50 53 55 57 59 61 63 66 68 69 71 72 73 75 77
39 44 49 52 52 52 51 50 48 46 43 41 39 38 37 36 36 36 36 37 37 38 38 39 40 43 46 49 52 54 56 58 61 63 65 67 69 71 72 73 75 77 81
31 37 44 48 49 49 48 47 46 43 41 39 37 36 36 36 36 36 36 36 37 37 38 39 42 45 48 51 53 55 58 60 62 65 67 68 70 71 73 75 78 81 86
26 33 40 44 46 46 45 44 42 40 38 37 36 35 35 35 35 35 36 36 36 37 38 41 44 47 50 52 55 57 59 61 64 66 68 69 71 72 74 78 82 87 91
22 31 37 40 42 42 42 41 39 36 35 34 34 34 34 34 35 35 34 35 36 37 40 43 46 49 51 54 56 58 60 63 65 67 68 70 72 74 78 82 87 92 96
22 30 35 38 38 38 37 36 34 32 32 31 31 32 32 33 33 33 33 34 36 39 42 45 48 50 53 55 57 60 62 64 66 67 69 71 73 77 82 87 92 96 97
23 29 32 34 34 34 32 30 29 29 29 29 29 30 31 31 31 32 33 35 38 41 44 47 49 51 54 56 59 61 63 65 66 68 70 73 77 82 86 91 94 94 90
23 27 28 29 29 28 27 26 26 26 26 27 27 28 28 29 30 31 34 37 40 42 45 48 50 52 55 57 60 62 63 65 67 69 73 77 81 87 91 93 91 85 76
20 22 23 23 23 23 22 22 23 23 23 24 24 25 26 28 30 33 36 38 41 43 46 48 51 54 56 58 60 62 63 65 67 72 77 81 86 91 93 90 83 73 62
16 17 18 18 19 19 19 19 19 20 20 21 22 24 26 29 32 34 36 39 42 44 47 50 52 55 57 59 60 62 63 66 70 76 81 87 91 92 90 82 71 59 49
12 13 14 15 15 16 16 16 17 17 18 20 22 25 27 30 32 34 37 40 43 45 48 51 54 55 57 58 60 63 66 70 75 80 85 90 91 88 80 69 58 48 41
11 11 12 12 12 12 13 14 15 17 19 21 23 25 28 30 33 35 38 41 44 46 49 52 54 55 57 58 61 65 70 75 79 84 89 90 86 77 67 56 46 40 36
8 9 9 9 10 10 12 13 15 17 19 21 23 26 28 31 34 37 39 42 45 47 49 51 53 55 57 60 64 68 74 79 83 87 88 83 75 64 53 44 38 34 33
7 7 8 8 9 10 12 14 15 17 19 22 24 27 30 32 35 38 41 44 46 48 49 51 52 55 58 62 67 72 77 82 85 86 81 71 61 50 42 36 32 31 31
7 8 8 9 10 11 12 14 16 18 21 23 26 29 31 34 37 40 42 44 46 48 49 51 53 56 60 66 71 76 81 84 85 79 69 58 48 40 34 31 30 31 32
8 8 8 9 10 11 13 15 18 20 23 25 28 31 33 36 39 41 43 44 46 48 50 52 56 60 65 70 75 80 83 84 78 67 56 45 37 32 29 29 30 32 34

GEFSMW_500_meanwind_054.txt.gz
Wind_Speed
33 33 34 35 36 38 40 42 42 41 42 43 41 40 40 39 38 38 37 36 36 36 37 38 38 37 37 37 37 38 38 38 39 39 40 41 42 43 43 44 44 45 45
36 37 37 38 39 40 41 42 43 43 43 44 43 43 43 41 39 38 38 37 37 37 37 38 38 38 38 38 38 38 38 40 40 41 41 42 42 43 44 45 46 47 48
40 41 42 43 43 43 44 44 44 45 45 45 46 45 43 42 41 40 39 38 38 38 38 38 39 39 39 39 39 39 39 40 41 42 43 44 44 44 44 46 47 48 50
44 45 46 47 48 48 48 47 47 48 48 48 48 47 45 44 43 42 40 39 39 39 39 39 40 40 40 40 40 40 40 40 41 42 44 45 46 46 46 47 48 50 51
48 49 50 50 51 52 52 52 51 51 50 49 49 48 47 46 45 43 42 40 40 39 39 40 40 40 40 40 41 41 41 42 42 43 44 46 47 48 49 49 50 52 53
49 50 51 52 53 54 55 55 55 54 52 51 50 49 48 47 46 45 43 42 40 40 40 40 40 40 40 41 41 42 42 43 44 45 46 47 49 50 51 52 52 53 55
49 49 50 51 52 53 54 55 56 55 54 53 51 50 49 48 47 46 44 42 41 40 40 40 40 40 40 41 42 43 43 45 46 47 48 49 51 52 53 55 56 57 57
49 50 50 50 51 52 53 54 55 56 55 54 52 51 49 48 47 46 45 43 41 41 40 40 40 40 40 41 43 44 45 46 47 48 49 51 52 54 55 58 60 61 61
49 49 50 50 50 51 52 52 54 55 55 54 53 51 49 48 47 47 45 43 41 41 40 40 40 40 41 41 43 44 46 47 48 49 50 52 53 55 57 60 62 65 66
47 48 49 50 50 50 51 52 52 53 54 54 53 50 48 47 47 46 45 43 42 41 40 40 40 41 41 42 43 45 46 47 48 50 52 53 55 57 60 62 64 67 69
46 47 48 49 49 50 50 51 50 52 52 51 50 49 48 47 46 45 44 43 41 40 40 40 40 40 41 43 44 45 47 48 49 51 53 55 57 60 62 64 66 68 70
45 46 47 47 47 47 48 49 49 49 48 48 47 47 46 46 45 44 43 41 40 39 39 39 40 40 42 43 45 46 47 49 50 53 55 57 60 62 64 66 68 70 71
42 43 43 42 41 41 43 45 46 45 45 45 44 44 43 43 43 42 41 40 39 39 39 39 40 41 43 44 45 46 48 50 52 54 57 59 62 64 66 68 69 70 72
38 38 37 35 34 34 35 39 40 41 41 41 41 41 40 40 39 39 38 38 38 38 38 38 39 41 43 44 45 46 49 51 54 56 59 61 64 66 67 68 70 72 73
31 29 27 24 23 24 27 31 35 36 37 37 37 37 37 36 36 36 35 36 36 37 37 38 40 41 43 44 45 47 50 53 56 58 61 63 65 67 68 69 71 73 76
23 19 16 13 14 18 22 26 31 33 34 33 33 32 32 32 32 33 33 34 34 35 36 38 40 41 43 44 46 49 52 55 57 60 62 64 66 67 68 70 73 77 82
15 10 5 4 10 15 20 24 27 29 29 29 29 28 29 29 29 30 31 32 33 35 37 38 40 41 43 45 48 51 54 56 59 61 63 64 65 67 69 72 76 82 88
12 7 4 7 12 16 20 22 25 25 26 25 25 25 25 26 26 27 29 31 33 35 36 38 40 42 44 47 50 52 55 58 60 62 63 65 67 69 72 75 80 85 89
10 9 9 12 14 17 18 20 21 21 21 21 21 21 22 23 25 27 29 30 32 34 36 38 40 43 46 48 51 54 56 58 60 61 64 66 69 72 76 80 84 87 86
9 10 11 13 16 17 18 17 17 17 17 17 17 18 20 22 24 25 27 29 32 34 36 38 41 44 47 50 53 55 57 58 59 62 65 69 73 77 81 84 86 84 78
8 10 11 12 13 13 14 15 14 14 14 15 16 17 19 21 23 25 27 29 31 34 36 40 43 46 49 51 54 55 57 58 60 63 67 72 76 80 84 86 83 77 68
6 8 9 10 11 11 12 12 12 12 14 14 15 17 19 20 22 24 26 29 32 35 38 41 44 47 50 51 53 55 57 60 63 67 71 76 80 83 84 81 75 66 57
3 5 7 8 8 8 9 10 11 12 12 13 14 16 17 19 21 24 27 30 34 37 40 42 45 48 50 51 53 56 59 63 67 71 75 78 81 82 78 72 63 54 47
1 2 4 5 6 7 7 7 7 8 10 11 13 15 17 20 23 26 29 33 35 38 41 44 45 47 50 52 54 58 62 66 70 73 76 79 79 75 68 59 51 45 42
1 1 2 3 4 4 5 5 6 8 9 11 14 17 20 23 26 29 32 34 37 40 42 43 45 48 50 53 57 61 65 69 71 74 76 75 71 64 56 47 42 40 39
2 2 3 3 3 4 5 6 7 9 11 14 17 20 23 26 28 31 34 36 38 40 42 44 47 49 53 56 61 65 68 71 73 74 72 68 62 52 43 38 37 38 38

GEFSMW_500_meanwind_060.txt.gz
Wind_Speed
35 35 34 34 34 34 33 33 33 33 34 35 35 35 36 36 37 37 37 36 35 34 34 34 33 33 33 33 33 33 33 33 33 34 35 35 36 37 38 39 39 40 41
36 36 35 35 35 35 35 35 35 35 36 37 37 39 40 40 40 39 39 38 37 37 36 36 35 35 34 34 34 34 34 34 35 35 36 37 37 39 39 40 40 41 42
37 37 37 37 37 37 37 38 38 39 39 40 41 41 42 42 41 40 39 39 39 39 39 38 37 36 36 35 35 35 35 35 36 36 37 37 38 39 40 41 42 42 43
38 38 39 39 39 39 40 41 42 43 43 44 44 44 44 44 43 42 42 42 42 42 41 40 39 38 37 36 36 36 36 37 37 38 38 39 39 40 41 42 43 44 44
39 39 40 40 41 42 43 44 45 46 47 48 48 48 47 47 46 46 45 44 44 44 43 42 41 40 39 38 38 37 37 38 39 39 40 41 41 42 43 43 44 45 46
39 40 41 42 44 45 47 48 49 50 51 52 52 52 52 50 49 49 48 47 47 46 45 45 43 42 41 40 40 39 39 39 40 41 42 43 43 43 44 45 46 46 47
40 42 43 45 46 48 49 51 52 53 54 54 54 54 54 53 52 51 51 50 48 47 47 46 45 44 43 42 41 40 40 41 41 42 43 43 44 45 47 48 48 48 48
41 43 45 47 48 50 52 53 53 54 54 54 54 55 54 54 53 52 51 50 49 48 48 47 46 45 44 43 42 41 41 42 43 44 44 45 46 48 49 50 51 51 51
41 43 45 47 49 50 52 53 54 54 55 55 54 54 54 53 53 52 52 51 50 49 49 48 47 46 45 44 43 42 43 43 45 45 46 47 48 50 52 53 54 55 55
40 42 44 45 47 49 51 52 53 54 54 54 54 54 53 53 52 52 52 51 50 50 49 48 47 46 45 44 43 43 43 44 45 46 47 49 50 52 54 55 57 58 59
36 38 41 43 46 48 50 52 53 53 53 53 52 52 52 51 50 49 50 50 50 50 49 47 46 45 44 44 43 43 44 45 46 47 49 51 53 55 57 58 59 61 62
35 37 39 42 44 46 48 50 51 52 52 52 51 50 50 49 48 46 46 48 48 48 47 46 45 44 43 42 42 43 43 45 47 48 50 53 55 57 59 60 61 63 65
34 36 38 41 43 44 45 46 46 46 47 48 49 49 48 48 46 45 44 44 45 45 44 43 42 42 41 40 41 42 44 45 47 50 52 54 57 59 60 61 63 65 67
32 34 36 39 40 40 40 39 38 38 38 41 43 45 45 45 44 43 41 41 42 42 41 40 39 39 39 39 41 42 43 47 50 52 54 57 58 60 61 63 65 66 68
29 30 33 34 35 34 33 31 29 28 28 31 35 38 39 40 40 38 37 37 37 37 36 36 35 36 37 38 40 42 45 48 52 54 56 58 59 61 63 65 66 68 69
24 26 28 29 28 27 25 22 18 18 20 24 28 31 33 34 34 33 32 32 32 32 31 31 32 34 36 37 40 44 47 51 53 55 57 59 61 63 65 66 68 70 72
21 23 23 23 22 20 16 12 11 12 16 20 23 25 27 28 29 29 27 27 27 27 28 30 31 33 36 39 43 46 49 51 53 56 58 60 62 64 65 67 69 71 74
17 18 19 18 16 12 8 5 5 8 12 17 20 22 23 24 25 25 23 23 24 26 27 29 31 34 38 41 44 47 50 52 54 57 59 60 62 64 66 68 70 73 76
13 14 15 13 11 7 2 3 5 9 13 16 18 20 21 22 22 21 22 22 23 24 27 29 33 36 39 41 45 48 50 52 55 57 59 61 63 66 68 70 72 74 78
10 10 10 9 8 5 4 6 8 11 14 16 18 18 18 19 19 20 20 20 21 24 27 30 33 36 39 42 46 48 50 52 54 57 60 63 65 67 70 72 74 76 78
9 8 6 5 5 5 6 8 9 11 13 13 14 14 15 15 16 17 18 20 21 24 27 30 33 36 39 42 45 48 50 52 55 58 60 63 66 68 70 73 75 76 76
6 5 4 3 3 4 5 6 8 9 10 10 10 10 11 12 14 16 18 20 22 25 28 31 34 37 40 43 46 48 51 54 56 59 62 64 66 69 72 74 75 74 72
4 3 3 2 2 3 4 4 5 6 7 7 8 9 10 11 14 15 18 21 24 27 29 32 35 38 41 44 46 50 53 56 58 61 63 65 67 70 72 73 72 68 62
4 3 2 1 1 1 2 2 2 3 4 5 6 8 9 11 14 17 20 22 25 27 30 33 36 39 42 45 48 51 54 57 60 62 64 67 69 70 71 68 62 56 50
4 4 3 2 1 1 1 1 2 3 4 5 7 9 11 13 15 18 20 23 26 29 31 34 37 40 43 46 49 52 55 57 60 62 64 66 67 67 63 56 50 45 41
5 5 4 4 3 4 4 4 5 5 6 7 9 11 13 16 18 20 23 25 28 30 33 36 39 42 44 47 50 53 56 58 60 62 62 63 62 57 50 45 41 38 37